DL1WER-13 Weather Reports


time (UTC)temp
C
wind
direction
speed
KPH
gust
KPH
rain 1hr
cm
rain 24hr
cm
rain mn
cm
humidity
%
barometer
mb
20260506012023 9 264 0.0 3.2 0.00 0.10 0.00 96 1034.6
20260506011022 10 344 1.6 4.8 0.00 0.10 0.00 96 1034.9
20260506010023 10 0 0.0 1.6 0.00 0.10 0.00 95 1035.0
20260506005022 10 168 0.0 3.2 0.00 0.10 0.00 95 1034.8
20260506004022 9 241 0.0 3.2 0.00 0.10 0.00 95 1034.9
20260506003023 9 327 0.0 3.2 0.00 0.10 0.00 94 1034.9
20260506002023 10 294 0.0 3.2 0.00 0.10 0.00 95 1035.0
20260506001023 10 353 1.6 3.2 0.00 0.10 0.00 95 1035.1
20260506000023 10 325 0.0 3.2 0.00 0.10 0.00 94 1035.3
20260505235022 10 311 1.6 3.2 0.00 0.10 0.00 94 1035.2
20260505234022 10 283 0.0 3.2 0.00 0.10 0.00 94 1035.3
20260505233023 10 291 0.0 3.2 0.00 0.10 0.00 94 1035.5
20260505232022 10 160 1.6 4.8 0.00 0.10 0.00 93 1035.4
20260505231022 10 199 1.6 3.2 0.00 0.10 0.00 93 1035.4
20260505230023 10 205 1.6 3.2 0.00 0.10 0.00 93 1035.3
20260505225022 10 236 1.6 4.8 0.00 0.10 0.00 93 1035.5
20260505224022 11 210 0.0 3.2 0.00 0.10 0.00 93 1035.6
20260505223023 11 323 1.6 6.4 0.00 0.10 0.00 93 1035.4
20260505222022 11 323 3.2 6.4 0.00 0.10 0.00 93 1035.6
20260505221022 11 149 3.2 6.4 0.00 0.10 0.00 92 1035.6
20260505220026 11 224 3.2 6.4 0.00 0.10 0.00 92 1035.5
20260505215022 11 335 3.2 8.0 0.00 0.10 0.10 92 1035.3
20260505214023 11 326 3.2 8.0 0.00 0.10 0.10 91 1035.5
20260505213022 11 323 3.2 8.0 0.03 0.10 0.10 91 1035.3
20260505212023 11 324 4.8 9.7 0.03 0.10 0.10 90 1035.2
20260505211023 11 289 3.2 8.0 0.05 0.10 0.10 90 1035.3
20260505210023 11 296 3.2 9.7 0.05 0.10 0.10 90 1035.5
20260505205022 12 274 1.6 6.4 0.05 0.10 0.10 90 1035.4
20260505204023 12 209 3.2 11.3 0.05 0.10 0.10 88 1035.5
20260505203023 12 322 4.8 11.3 0.03 0.05 0.05 86 1035.5
20260505202022 13 269 6.4 12.9 0.03 0.05 0.05 78 1035.6
20260505201023 13 349 4.8 11.3 0.00 0.03 0.03 75 1035.6
20260505200022 13 305 8.0 22.5 0.00 0.03 0.03 72 1035.4
20260505195022 14 265 9.7 19.3 0.00 0.03 0.03 70 1035.4
20260505194022 14 181 4.8 17.7 0.00 0.03 0.03 73 1035.2
20260505193022 14 260 3.2 8.0 0.00 0.03 0.03 74 1035.0
20260505192022 14 282 3.2 11.3 0.00 0.03 0.03 75 1034.9
20260505191022 14 202 0.0 4.8 0.00 0.03 0.03 76 1034.3
20260505190022 14 159 1.6 6.4 0.00 0.03 0.03 76 1034.5
20260505185022 14 1 0.0 3.2 0.00 0.03 0.03 76 1034.2
20260505184022 14 0 0.0 1.6 0.00 0.03 0.03 75 1034.2
20260505183022 14 181 0.0 1.6 0.00 0.03 0.03 75 1034.2
20260505182022 14 173 0.0 3.2 0.00 0.03 0.03 74 1034.0
20260505181021 15 169 0.0 3.2 0.00 0.03 0.03 73 1034.1
20260505180023 15 171 1.6 3.2 0.00 0.03 0.03 72 1033.9
20260505175022 15 266 1.6 4.8 0.00 0.03 0.03 71 1033.7
20260505174021 15 137 1.6 3.2 0.00 0.03 0.03 71 1033.6
20260505173023 15 198 0.0 3.2 0.00 0.03 0.03 72 1033.4
20260505172022 16 320 0.0 3.2 0.00 0.03 0.03 70 1033.3
20260505171022 16 158 1.6 4.8 0.00 0.03 0.03 70 1033.3
20260505170023 16 214 3.2 6.4 0.00 0.03 0.03 71 1033.1
20260505165022 16 233 1.6 6.4 0.00 0.03 0.03 72 1033.1
20260505164021 16 235 1.6 4.8 0.00 0.03 0.03 71 1033.3
20260505163022 16 144 1.6 3.2 0.00 0.03 0.03 69 1033.8
20260505162022 16 279 3.2 6.4 0.00 0.03 0.03 68 1033.8
20260505161021 16 314 3.2 6.4 0.00 0.03 0.03 67 1033.9
20260505153023 16 178 3.2 6.4 0.00 0.03 0.03 68 1033.6
20260505152022 16 156 3.2 9.7 0.00 0.03 0.03 66 1033.8
20260505151022 16 229 4.8 8.0 0.00 0.03 0.03 66 1033.8
20260505125021 15 299 4.8 8.0 0.03 0.03 0.03 84 1034.4
20260505124022 15 151 4.8 8.0 0.03 0.03 0.03 83 1034.3
20260505123024 15 216 4.8 12.9 0.03 0.03 0.03 80 1034.8
20260505122021 16 260 4.8 12.9 0.00 0.00 0.00 76 1034.6
20260505121022 17 165 4.8 12.9 0.00 0.00 0.00 71 1034.5
20260505120022 18 289 4.8 11.3 0.00 0.00 0.00 63 1034.6
20260505115021 18 299 4.8 9.7 0.00 0.00 0.00 60 1034.5
20260505114021 20 257 3.2 9.7 0.00 0.00 0.00 53 1034.2
20260505113022 20 309 4.8 9.7 0.00 0.00 0.00 50 1034.1
20260505112022 20 320 4.8 8.0 0.00 0.00 0.00 51 1034.2
20260505111022 20 264 1.6 3.2 0.00 0.00 0.00 52 1034.1
20260505102022 19 255 3.2 6.4 0.00 0.00 0.00 51 1034.1
20260505101021 19 284 4.8 6.4 0.00 0.00 0.00 50 1034.3
20260505100022 19 160 4.8 6.4 0.00 0.00 0.00 47 1034.2
20260505095021 20 213 4.8 8.0 0.00 0.00 0.00 50 1034.4
20260505094020 21 297 3.2 6.4 0.00 0.00 0.00 54 1034.5
20260505093022 20 232 3.2 6.4 0.00 0.00 0.00 55 1034.3
20260505092021 20 311 3.2 6.4 0.00 0.00 0.00 56 1034.5
20260505091022 20 222 3.2 6.4 0.00 0.00 0.00 60 1034.7
20260505090022 18 236 3.2 6.4 0.00 0.00 0.00 60 1034.7
20260505085021 18 275 6.4 9.7 0.00 0.00 0.00 60 1034.8
20260505084021 19 342 3.2 8.0 0.00 0.00 0.00 60 1034.7
20260505083021 18 291 3.2 6.4 0.00 0.00 0.00 63 1034.9
20260505082021 17 355 3.2 6.4 0.00 0.00 0.00 67 1035.1
20260505081022 16 138 1.6 3.2 0.00 0.00 0.00 71 1035.3
20260505080022 16 261 1.6 4.8 0.00 0.00 0.00 71 1035.1
20260505075021 16 305 1.6 4.8 0.00 0.00 0.00 70 1035.1
20260505074021 16 330 3.2 6.4 0.00 0.00 0.00 70 1035.4
20260505073021 15 300 1.6 4.8 0.00 0.00 0.00 70 1035.2
20260505072021 15 257 3.2 4.8 0.00 0.00 0.00 70 1035.5
20260505071021 15 277 1.6 4.8 0.00 0.00 0.00 71 1035.7
20260505070021 15 292 1.6 4.8 0.00 0.00 0.00 73 1035.8
20260505065021 14 305 1.6 3.2 0.00 0.00 0.00 74 1036.1
20260505064021 13 302 1.6 4.8 0.00 0.00 0.00 75 1035.8
20260505063022 13 333 3.2 6.4 0.00 0.00 0.00 76 1036.3
20260505062021 12 322 3.2 6.4 0.00 0.00 0.00 80 1036.0
20260505061021 11 323 3.2 4.8 0.00 0.00 0.00 84 1035.9
20260505060021 11 332 3.2 6.4 0.00 0.00 0.00 84 1035.9
20260505055021 10 342 4.8 6.4 0.00 0.00 0.00 83 1036.0
20260505054020 10 318 3.2 6.4 0.00 0.00 0.00 82 1036.1
20260505053021 10 329 3.2 6.4 0.00 0.00 0.00 82 1035.9
20260505052021 10 299 3.2 4.8 0.00 0.00 0.00 82 1036.0
20260505051021 10 297 1.6 4.8 0.00 0.00 0.00 85 1035.8
20260505041021 7 298 1.6 3.2 0.00 0.00 0.00 91 1036.2
20260505040021 7 294 3.2 4.8 0.00 0.00 0.00 91 1036.3
20260505035021 7 319 1.6 3.2 0.00 0.00 0.00 90 1036.4
20260505034021 7 312 3.2 4.8 0.00 0.00 0.00 90 1036.3
20260505033021 7 277 1.6 4.8 0.00 0.00 0.00 90 1036.4
20260505032021 7 329 1.6 3.2 0.00 0.00 0.00 90 1036.7
20260505031021 7 298 1.6 3.2 0.00 0.00 0.00 90 1036.4
20260505030021 8 336 3.2 4.8 0.00 0.00 0.00 89 1036.5
20260505025020 8 303 1.6 4.8 0.00 0.00 0.00 88 1036.6
20260505024021 8 306 1.6 3.2 0.00 0.00 0.00 87 1036.7
20260505023021 8 287 1.6 3.2 0.00 0.00 0.00 87 1036.7
20260505022021 9 322 1.6 4.8 0.00 0.00 0.00 86 1036.9
20260505021021 9 343 3.2 4.8 0.00 0.00 0.00 85 1036.9
20260505020021 9 322 1.6 4.8 0.00 0.00 0.00 85 1037.2
20260505015020 10 288 0.0 3.2 0.00 0.00 0.00 84 1037.0
20260505014020 10 299 0.0 3.2 0.00 0.00 0.00 85 1037.1
20260505013022 10 227 0.0 3.2 0.00 0.00 0.00 86 1037.5